Date,TemperatureHighF,TemperatureAvgF,TemperatureLowF,DewpointHighF,DewpointAvgF,DewpointLowF,HumidityHigh,HumidityAvg,HumidityLow,PressureMaxIn,PressureMinIn,WindSpeedMaxMPH,WindSpeedAvgMPH,GustSpeedMaxMPH,PrecipitationSumIn
2012-1-1,52.4,43.2,33.9,43.0,36.3,23.0,92,78,48,30.11,29.74,9,1,11,0.01
2012-1-2,41.6,32.9,25.9,29.0,18.6,14.0,74,56,44,29.96,29.85,8,2,16,0.00
2012-1-3,26.2,22.6,15.0,20.0,12.3,5.0,88,65,47,30.28,29.96,6,2,15,0.00
2012-1-4,28.1,20.0,10.6,19.0,11.3,4.0,81,69,60,30.31,29.99,3,0,7,0.00
2012-1-5,45.5,37.6,27.0,26.0,23.1,18.0,75,57,40,30.04,29.93,4,1,8,0.01
2012-1-6,62.7,49.8,36.9,33.0,27.9,23.0,59,44,31,29.93,29.80,5,2,11,0.00
2012-1-7,63.1,50.6,39.8,44.0,30.8,24.0,57,47,36,30.06,29.77,7,1,10,0.00
2012-1-8,47.4,40.3,30.8,30.0,26.9,23.0,73,60,47,30.32,30.07,7,1,8,0.00
2012-1-9,37.3,31.6,28.0,31.0,25.4,21.0,96,79,61,30.33,30.03,4,0,7,0.00
2012-1-10,51.4,38.6,26.9,34.0,29.9,26.0,97,74,46,30.05,29.98,4,1,9,0.01
2012-1-11,40.4,36.4,29.2,40.0,34.0,25.0,97,91,75,30.02,29.55,3,0,6,0.81
2012-1-12,55.7,45.9,37.5,47.5,42.5,36.7,98,89,71,29.56,29.31,4,1,7,0.02
2012-1-13,46.3,30.5,24.2,44.0,18.8,10.7,91,62,47,29.96,29.32,7,2,18,0.16
2012-1-14,34.1,27.3,23.0,16.9,14.5,12.0,68,59,46,30.18,29.96,5,1,9,0.00
2012-1-15,31.8,24.9,20.0,15.2,13.7,11.8,75,63,46,30.58,30.17,4,1,9,0.00
2012-1-16,41.4,29.3,16.0,33.2,20.1,12.5,87,69,48,30.58,30.11,6,1,11,0.03
2012-1-17,60.8,48.2,39.8,46.4,39.1,31.0,88,71,56,30.12,29.67,7,2,13,0.10
2012-1-18,50.7,33.5,20.8,36.4,19.9,12.0,72,57,45,30.18,29.73,6,2,16,0.00
2012-1-19,38.6,28.6,16.9,23.5,16.8,11.6,83,62,46,30.19,29.92,4,1,8,0.00
2012-1-20,35.7,27.9,24.1,26.5,16.5,9.0,91,63,50,30.28,29.97,5,2,10,0.00
2012-1-21,31.0,28.6,25.2,29.2,26.6,22.5,95,92,87,30.31,29.94,5,1,7,0.03
2012-1-22,30.6,27.9,25.2,29.2,25.3,22.0,95,90,85,30.45,30.30,3,1,4,0.01
2012-1-23,46.9,37.9,30.6,44.2,36.4,29.3,98,94,88,30.32,29.84,4,1,9,0.13
2012-1-24,55.8,45.1,39.6,43.0,36.6,31.0,97,74,41,30.21,29.89,3,1,7,0.01
2012-1-25,48.5,40.8,33.5,35.7,32.1,28.9,84,71,57,30.36,30.17,4,1,7,0.00
2012-1-26,42.4,39.4,37.3,39.4,35.5,31.8,97,86,75,30.18,29.69,3,1,5,0.04
2012-1-27,58.6,45.6,38.0,53.6,38.8,26.0,99,79,58,30.01,29.46,10,2,18,0.21
2012-1-28,54.2,40.0,31.6,34.3,25.9,8.2,84,59,33,30.19,29.89,10,1,13,0.00
2012-1-29,44.4,35.9,28.2,31.2,15.5,6.9,90,45,31,30.26,30.03,4,1,12,0.00
2012-1-30,45.2,34.9,24.9,25.4,19.1,14.2,75,54,30,30.39,30.18,4,1,9,0.03
2012-1-31,67.3,54.0,42.6,32.4,27.6,24.6,50,37,21,30.20,30.02,4,1,9,0.00
2012-2-1,63.4,55.5,49.1,48.4,40.2,27.0,82,58,35,30.03,29.97,6,1,10,0.00
2012-2-2,57.0,47.2,36.3,47.0,38.0,26.0,96,72,44,30.34,29.94,10,1,17,0.06
2012-2-3,51.2,39.2,30.8,31.4,28.2,25.6,82,66,43,30.51,30.34,4,1,7,0.00
2012-2-4,41.9,35.6,32.3,33.0,29.8,26.8,96,80,66,30.34,30.11,4,0,7,0.03
2012-2-5,38.5,33.3,29.9,34.0,31.1,27.6,97,92,77,30.24,30.08,4,0,6,0.26
2012-2-6,50.8,38.2,27.8,33.6,29.8,25.6,92,73,43,30.25,30.06,7,1,9,0.02
2012-2-7,54.0,43.5,33.8,32.1,28.1,25.6,72,55,36,30.23,30.08,4,1,9,0.01
2012-2-8,35.6,33.1,31.7,32.0,28.8,25.0,96,84,72,30.24,30.12,2,0,4,0.07
2012-2-9,44.6,34.5,28.9,27.4,20.5,16.0,79,58,34,30.27,30.18,4,1,8,0.01
2012-2-10,42.1,33.5,26.4,31.5,25.2,19.8,96,73,52,30.19,29.91,3,0,6,0.00
2012-2-11,35.9,30.6,19.8,32.7,26.8,9.0,97,87,56,29.97,29.69,12,1,23,0.14
2012-2-12,28.5,22.1,17.4,12.0,9.8,7.0,70,60,49,30.16,29.98,8,2,17,0.00
2012-2-13,46.3,36.1,24.7,22.4,15.8,13.0,63,45,28,30.22,30.07,5,1,11,0.02
2012-2-14,49.5,39.8,32.0,29.0,23.5,17.7,71,53,35,30.09,29.91,5,1,8,0.00
2012-2-15,51.2,43.0,39.5,34.3,31.0,28.0,77,63,44,30.27,30.02,5,1,10,0.00
2012-2-16,45.4,41.5,37.9,44.0,37.9,29.0,97,87,65,30.25,29.98,4,0,7,0.24
2012-2-17,51.2,43.5,36.8,43.8,32.3,25.7,96,67,38,30.13,29.99,6,1,10,0.01
2012-2-18,59.7,43.2,30.8,31.2,26.4,23.0,80,54,25,30.10,29.87,6,1,10,0.00
2012-2-19,40.1,35.7,30.6,25.1,23.6,21.0,72,61,52,30.10,29.90,7,2,8,0.00
2012-2-20,48.0,37.4,28.7,24.2,19.9,15.0,71,51,28,30.33,29.99,5,2,11,0.00
2012-2-21,50.2,37.8,26.0,32.4,25.1,16.5,78,61,43,30.31,29.84,5,1,10,0.00
2012-2-22,59.6,48.9,36.1,40.6,34.0,26.0,85,59,32,29.85,29.46,6,2,11,0.00
2012-2-23,63.2,53.6,45.4,41.0,35.4,27.7,76,52,29,29.62,29.43,8,1,11,0.00
2012-2-24,56.8,46.4,38.3,50.5,38.9,25.0,96,77,37,29.69,29.34,17,2,18,0.22
2012-2-25,41.6,35.4,31.4,26.9,19.7,14.0,73,53,38,30.28,29.68,12,2,26,0.00
2012-2-26,47.3,36.4,27.3,21.0,17.4,15.0,67,47,29,30.49,30.28,4,1,10,0.00
2012-2-27,65.1,54.2,31.2,33.3,27.6,18.0,62,37,27,30.36,30.13,9,2,16,0.00
2012-2-28,53.1,43.8,33.3,25.0,22.3,18.0,62,44,27,30.46,30.25,6,1,11,0.00
2012-2-29,51.1,42.4,37.4,49.1,37.2,23.0,98,84,50,30.25,29.63,4,1,8,1.34
2012-3-1,63.9,53.1,38.2,50.5,39.3,30.3,99,62,36,29.95,29.59,5,2,13,0.04
2012-3-2,48.7,40.7,32.9,43.0,34.2,28.0,97,78,60,30.01,29.65,11,2,12,0.45
2012-3-3,58.2,48.1,42.7,46.0,33.8,17.0,97,64,23,29.73,29.51,10,1,13,0.01
2012-3-4,43.3,36.3,29.3,26.0,21.5,18.0,71,56,41,29.90,29.69,5,1,12,0.00
2012-3-5,40.1,31.5,26.3,30.0,21.9,17.0,90,69,50,30.48,29.90,5,1,16,0.02
2012-3-6,49.4,35.5,24.9,25.0,20.6,16.0,71,56,36,30.65,30.48,7,1,10,0.00
2012-3-7,68.3,51.7,37.4,41.0,31.2,23.0,60,47,29,30.51,30.29,8,2,12,0.00
2012-3-8,68.5,60.5,51.3,50.0,46.8,41.0,80,62,49,30.29,29.92,10,2,14,0.02
2012-3-9,54.7,45.1,35.7,46.0,25.0,18.0,78,47,31,30.36,29.98,9,2,15,0.00
2012-3-10,48.2,37.4,28.7,19.0,15.9,10.0,60,43,22,30.56,30.36,5,1,8,0.00
2012-3-11,65.3,53.2,30.1,32.2,28.0,16.0,70,40,25,30.51,30.33,5,2,16,0.00
2012-3-12,71.0,57.2,43.8,50.7,34.4,29.6,63,44,24,30.35,30.08,5,1,8,0.00
2012-3-13,78.8,66.8,56.9,56.6,50.3,45.1,81,58,33,30.09,29.95,6,2,11,0.01
2012-3-14,79.6,68.8,60.2,49.1,45.6,39.8,64,45,27,30.17,30.03,5,1,11,0.00
2012-3-15,81.5,64.7,54.6,55.5,47.4,40.8,80,55,29,30.17,30.07,5,1,9,0.10
2012-3-16,66.8,57.8,51.0,58.3,52.9,49.4,96,84,67,30.16,30.08,4,0,5,0.04
2012-3-17,74.8,66.9,57.2,59.0,54.9,51.0,82,66,50,30.26,30.16,5,2,9,0.00
2012-3-18,68.0,59.2,49.7,57.0,53.7,48.0,96,82,67,30.30,30.15,5,1,8,0.00
2012-3-19,74.7,63.0,54.6,59.0,56.4,53.0,96,81,55,30.17,30.07,5,1,8,0.00
2012-3-20,71.1,62.3,53.9,62.0,58.2,53.0,98,87,71,30.23,30.13,4,1,9,0.00
2012-3-21,63.5,59.8,56.1,60.0,57.4,55.0,98,92,86,30.30,30.20,3,1,7,0.00
2012-3-22,78.6,66.1,54.1,65.0,59.1,53.0,98,80,56,30.24,30.05,6,1,10,0.00
2012-3-23,79.3,69.0,58.1,64.0,59.0,57.0,96,72,48,30.08,29.91,5,1,10,0.00
2012-3-24,67.1,59.8,53.1,60.0,57.4,52.0,97,92,68,29.90,29.81,5,1,7,0.61
2012-3-25,59.3,55.2,47.9,55.6,52.6,47.0,98,91,83,29.84,29.76,6,1,8,0.02
2012-3-26,58.6,52.6,38.6,54.3,33.0,13.2,86,50,27,30.22,29.81,8,3,17,0.00
2012-3-27,54.7,39.8,28.1,26.9,17.4,11.9,67,42,20,30.37,30.15,5,1,7,0.00
2012-3-28,78.3,59.7,41.1,58.7,42.2,23.0,70,53,35,30.15,29.67,6,2,19,0.08
2012-3-29,65.7,56.6,45.4,42.1,37.5,32.0,65,50,35,30.01,29.70,6,2,22,0.00
2012-3-30,54.6,45.0,36.4,44.9,37.0,31.0,84,74,60,30.09,29.79,3,1,6,0.00
2012-3-31,67.9,52.7,44.5,56.0,46.6,41.9,92,81,56,29.88,29.71,5,2,12,0.01
2012-4-1,65.0,53.8,45.2,54.0,46.4,42.2,94,78,51,29.88,29.57,5,1,9,0.25
2012-4-2,63.9,53.7,43.2,54.2,36.1,23.4,95,56,23,29.94,29.56,4,2,15,0.13
2012-4-3,72.3,55.9,40.7,47.6,31.8,19.0,63,41,23,30.03,29.75,5,1,8,0.00
2012-4-4,75.6,63.3,53.5,54.2,42.2,23.2,63,47,27,29.77,29.58,5,1,10,0.00
2012-4-5,57.1,49.5,40.4,35.1,30.4,24.6,70,49,33,29.88,29.73,6,1,8,0.00
2012-4-6,60.4,47.3,35.7,34.7,24.1,14.0,73,44,21,30.11,29.88,8,2,14,0.00
2012-4-7,64.3,51.5,39.7,30.1,19.7,11.6,48,29,17,30.24,30.08,9,1,13,0.00
2012-4-8,69.0,56.3,45.3,38.6,27.1,16.0,44,33,21,30.11,29.84,8,2,16,0.00
2012-4-9,63.1,53.1,43.6,43.1,32.9,19.7,89,49,27,29.92,29.78,8,2,17,0.03
2012-4-10,63.0,50.4,40.8,40.0,29.9,22.3,88,49,23,29.90,29.70,9,2,15,0.00
2012-4-11,50.4,42.4,35.9,36.2,29.7,22.7,77,61,44,30.08,29.88,7,2,12,0.01
2012-4-12,55.8,44.4,38.9,36.0,31.7,28.0,75,63,39,30.19,30.07,7,2,14,0.00
2012-4-13,65.3,52.2,38.2,38.0,31.8,29.0,79,48,26,30.28,30.17,4,1,8,0.00
2012-4-14,72.7,60.4,42.9,46.0,37.7,32.0,74,46,25,30.23,30.04,6,1,9,0.00
2012-4-15,81.8,70.8,56.4,59.2,53.0,45.0,80,54,38,30.06,29.95,5,1,7,0.01
2012-4-16,88.0,73.8,60.7,62.1,57.5,53.0,86,59,32,30.01,29.85,5,1,9,0.00
2012-4-17,74.3,63.4,55.5,53.7,41.7,31.8,59,46,30,30.21,29.97,4,1,11,0.00
2012-4-18,56.4,50.4,46.2,48.3,44.1,36.6,97,81,48,30.26,30.12,3,0,5,0.50
2012-4-19,67.3,55.4,47.4,54.0,48.2,41.1,98,79,43,30.13,30.00,1,0,4,0.00
2012-4-20,71.0,58.0,46.2,57.0,50.6,44.6,97,78,56,30.00,29.77,7,1,10,0.00
2012-4-21,78.4,61.2,50.8,59.5,53.4,47.5,90,77,41,29.79,29.60,6,1,9,0.36
2012-4-22,50.7,46.6,40.6,48.0,44.1,38.7,95,91,84,29.80,29.50,7,2,14,0.62
2012-4-23,45.1,40.2,35.9,39.5,35.4,24.5,94,84,49,29.54,29.38,8,2,14,0.21
2012-4-24,59.9,48.8,38.6,34.4,26.3,20.4,69,43,24,29.72,29.50,7,2,18,0.00
2012-4-25,68.3,55.0,37.8,38.5,32.2,26.2,78,45,22,29.85,29.73,7,1,9,0.00
2012-4-26,70.2,60.6,51.1,61.0,48.3,31.9,82,64,41,29.83,29.57,6,1,15,0.00
2012-4-27,59.4,51.4,44.0,47.1,33.1,27.1,71,51,31,30.19,29.74,12,2,14,0.00
2012-4-28,54.2,45.3,39.6,40.4,30.5,18.1,93,58,34,30.30,30.12,4,0,7,0.12
2012-4-29,72.4,54.0,38.7,47.0,37.9,24.0,97,62,23,30.27,30.11,7,1,7,0.06
2012-4-30,64.1,54.2,45.3,54.1,40.1,25.7,82,60,37,30.30,30.04,5,1,10,0.00
2012-5-1,82.3,69.8,58.3,65.0,58.5,53.6,98,71,39,30.04,29.94,5,1,11,0.16
2012-5-2,80.3,68.8,61.5,69.0,63.1,56.6,95,83,63,30.04,29.95,3,0,6,0.05
2012-5-3,87.4,70.5,56.9,70.4,63.5,56.0,98,81,49,30.14,29.95,5,1,7,0.01
2012-5-4,81.5,71.4,64.9,69.1,63.4,60.0,92,77,55,30.01,29.85,4,0,12,0.01
2012-5-5,76.7,70.0,60.5,65.6,62.3,58.0,94,77,66,29.95,29.84,3,1,6,0.00
2012-5-6,71.4,65.0,60.8,63.5,60.6,58.8,95,86,74,30.03,29.93,4,1,6,0.00
2012-5-7,67.5,63.3,59.9,61.4,58.0,48.6,94,83,65,30.02,29.92,7,2,11,0.01
2012-5-8,68.7,62.9,57.4,66.7,58.5,47.0,98,86,63,29.95,29.75,4,0,6,0.54
2012-5-9,71.7,62.7,54.0,64.0,58.5,52.6,98,87,60,29.78,29.66,3,0,9,0.07
2012-5-10,63.4,56.1,50.1,52.6,44.3,36.0,95,66,39,29.96,29.63,7,2,13,0.00
2012-5-11,71.2,56.4,44.2,43.0,39.0,35.0,80,55,30,30.19,29.96,7,1,9,0.00
2012-5-12,74.5,62.8,49.4,53.0,45.2,40.0,78,55,30,30.29,30.17,3,1,6,0.00
2012-5-13,78.1,66.0,55.0,62.0,56.2,50.0,88,71,54,30.18,30.05,4,1,6,0.00
2012-5-14,63.4,61.7,59.3,62.0,60.5,58.0,98,96,84,30.07,29.97,2,0,5,0.64
2012-5-15,77.1,67.4,61.2,65.2,61.4,58.6,99,83,56,29.98,29.89,4,0,7,0.17
2012-5-16,81.7,69.9,58.3,63.7,56.0,48.0,93,65,33,29.93,29.83,4,0,6,0.00
2012-5-17,70.3,61.4,51.9,56.0,45.0,36.2,80,57,34,30.11,29.93,6,1,8,0.00
2012-5-18,74.0,61.3,47.0,52.9,46.5,41.1,86,61,34,30.19,30.09,4,1,5,0.00
2012-5-19,79.0,65.0,49.9,56.5,51.1,47.0,90,64,35,30.18,30.09,3,0,5,0.00
2012-5-20,81.2,67.6,53.2,61.7,54.9,48.9,91,66,34,30.17,30.07,5,1,8,0.00
2012-5-21,68.7,64.8,62.2,65.9,62.5,57.0,98,93,76,30.07,29.88,4,1,5,0.11
2012-5-22,76.6,67.5,61.0,69.6,64.2,59.8,99,90,70,29.88,29.77,3,0,8,1.42
2012-5-23,77.3,66.6,58.7,67.5,62.7,58.0,99,88,64,29.94,29.82,3,0,6,0.10
2012-5-24,77.5,67.6,60.7,68.5,63.8,60.0,99,88,66,30.05,29.94,3,0,7,0.03
2012-5-25,83.3,72.1,61.0,71.9,66.7,60.3,99,84,59,30.11,30.03,2,0,5,0.00
2012-5-26,87.7,75.4,64.1,73.9,68.7,62.6,97,81,53,30.12,30.04,3,0,5,0.00
2012-5-27,86.5,75.5,64.9,74.7,69.0,61.6,98,82,58,30.11,29.98,5,1,10,0.05
2012-5-28,90.6,75.7,62.8,73.6,68.1,61.3,97,79,51,30.14,29.89,4,1,11,0.39
2012-5-29,88.9,74.8,67.2,73.5,68.9,66.0,97,83,53,29.90,29.69,4,1,8,0.79
2012-5-30,83.5,72.1,61.7,67.0,60.4,53.9,98,70,39,29.81,29.69,4,0,7,0.00
2012-5-31,79.9,70.5,60.8,58.6,54.9,50.6,82,59,38,29.87,29.72,3,0,6,0.00
2012-6-1,78.7,67.3,59.7,69.9,61.9,53.6,97,83,67,29.86,29.57,6,1,10,0.67
2012-6-2,71.0,61.4,52.1,59.2,50.0,45.4,97,69,41,29.83,29.70,5,1,10,0.00
2012-6-3,77.0,64.4,52.8,55.6,50.4,46.5,83,63,38,29.84,29.70,5,1,11,0.00
2012-6-4,72.3,64.1,57.8,56.3,51.7,48.7,81,65,50,29.76,29.64,7,1,15,0.00
2012-6-5,65.3,58.6,53.8,53.8,51.7,48.8,92,78,59,29.94,29.75,5,1,6,0.01
2012-6-6,72.1,60.8,53.7,57.0,52.7,47.6,93,76,44,30.01,29.93,2,0,6,0.01
2012-6-7,78.5,64.5,52.6,62.0,53.5,48.5,95,70,36,30.02,29.93,5,1,12,0.02
2012-6-8,81.3,67.7,51.6,59.4,54.0,49.4,94,64,36,30.02,29.91,5,1,10,0.00
2012-6-9,86.7,73.8,60.3,62.7,54.6,48.0,79,54,30,29.99,29.92,4,1,9,0.00
2012-6-10,88.0,75.5,62.1,65.8,59.6,53.7,84,60,34,30.08,29.99,3,0,6,0.00
2012-6-11,80.5,71.9,63.8,67.5,62.8,59.0,90,74,58,30.09,30.01,4,1,8,0.02
2012-6-12,80.9,70.0,64.9,74.4,67.7,63.7,98,93,76,30.01,29.77,2,0,12,0.96
2012-6-13,77.4,68.9,62.2,66.1,56.0,47.6,98,67,36,30.06,29.84,4,1,8,0.01
2012-6-14,76.9,65.3,56.7,62.0,56.2,51.6,84,73,54,30.18,30.06,4,0,6,0.00
2012-6-15,76.9,68.1,58.3,62.0,58.3,55.0,96,73,50,30.26,30.18,4,1,7,0.00
2012-6-16,77.2,66.4,54.8,62.0,57.0,53.0,94,73,53,30.30,30.16,3,0,5,0.00
2012-6-17,77.1,67.3,56.9,62.0,57.5,54.0,91,72,53,30.17,29.99,5,1,8,0.00
2012-6-18,67.9,63.4,59.8,64.8,60.6,56.5,98,91,76,30.07,29.98,3,0,4,0.64
2012-6-19,88.4,73.4,63.4,76.5,68.6,62.8,99,86,60,30.13,30.04,3,0,5,0.00
2012-6-20,91.8,80.9,70.0,72.8,69.4,65.7,92,70,45,30.13,29.98,3,0,6,0.00
2012-6-21,92.5,81.3,71.8,74.5,70.4,65.0,88,71,43,29.99,29.82,3,0,5,0.00
2012-6-22,88.3,76.0,66.9,74.2,69.6,64.5,96,82,56,29.85,29.73,4,0,6,0.67
2012-6-23,84.8,74.5,65.4,66.7,61.6,53.7,93,66,39,30.00,29.84,5,0,8,0.00
2012-6-24,85.8,74.2,60.0,69.0,62.4,56.7,92,69,42,30.01,29.86,2,0,5,0.00
2012-6-25,80.5,71.9,61.3,68.4,58.5,45.9,90,65,37,29.86,29.71,7,1,13,0.00
2012-6-26,76.5,66.2,54.6,56.3,48.6,43.8,77,54,39,29.91,29.80,6,1,13,0.00
2012-6-27,83.5,71.7,58.4,62.0,54.2,47.0,78,56,36,29.94,29.84,4,1,11,0.00
2012-6-28,92.0,78.0,65.6,67.3,60.6,53.7,74,57,38,29.91,29.72,4,1,7,0.00
2012-6-29,100.1,87.3,68.7,78.0,70.0,64.0,95,58,35,29.83,29.64,7,1,21,0.23
2012-6-30,71.1,66.5,63.9,69.0,65.6,63.0,98,96,92,29.83,29.74,2,0,4,0.00
2012-7-2,89.6,77.2,65.3,69.0,65.8,62.0,96,71,43,29.97,29.88,3,1,8,0.37
2012-7-3,92.2,77.6,67.5,72.0,66.7,63.0,96,71,39,29.95,29.85,3,0,14,0.11
2012-7-4,95.6,80.2,67.2,75.0,68.6,62.0,96,70,44,29.91,29.79,4,1,15,0.48
2012-7-5,93.3,82.6,68.8,72.0,68.1,63.0,95,64,42,29.87,29.79,5,1,11,0.00
2012-7-6,95.1,84.3,75.2,74.0,70.9,67.0,81,65,42,29.93,29.85,3,1,7,0.00
2012-7-7,98.9,87.3,76.6,77.0,72.2,69.0,84,63,40,29.90,29.79,3,0,7,0.00
2012-7-8,95.9,81.4,72.0,80.0,73.0,68.0,98,77,53,29.85,29.78,5,1,10,1.62
2012-7-9,82.0,73.4,67.5,71.0,68.4,64.0,98,85,57,29.95,29.82,3,0,8,0.46
2012-7-10,86.2,75.4,65.6,69.0,66.0,60.0,97,75,43,30.02,29.93,3,0,5,0.00
2012-7-11,84.7,74.6,66.2,71.0,67.0,63.0,96,78,52,30.12,30.01,4,0,7,0.00
2012-7-12,82.2,73.3,62.3,68.0,64.2,61.0,96,75,54,30.17,30.11,3,0,4,0.00
2012-7-13,78.4,72.8,67.1,68.0,64.6,61.0,91,76,60,30.20,30.14,1,0,3,0.00
2012-7-14,82.3,72.8,65.2,73.0,68.1,63.0,97,85,72,30.18,30.08,2,0,5,0.05
2012-7-15,90.5,76.7,70.8,75.0,71.8,69.0,95,86,54,30.11,29.97,3,0,12,0.61
2012-7-16,91.3,78.8,67.9,75.0,69.8,65.0,98,76,43,29.99,29.83,5,0,7,0.01
2012-7-17,94.9,82.2,69.4,74.0,69.5,67.0,92,68,40,29.89,29.78,2,0,5,0.00
2012-7-18,93.7,78.0,72.0,79.0,71.5,68.0,93,81,59,29.89,29.81,3,0,9,0.28
2012-7-19,91.3,77.3,68.6,76.0,70.4,68.0,98,81,53,29.95,29.80,2,0,8,0.71
2012-7-20,78.8,71.9,66.4,74.0,70.4,66.0,99,95,85,29.95,29.82,3,0,7,0.33
2012-7-21,67.8,64.9,62.1,65.0,63.9,62.0,99,96,90,30.12,29.95,3,0,5,0.20
2012-7-22,82.0,71.6,62.6,72.0,67.8,62.0,99,88,69,30.16,30.08,3,0,5,0.00
2012-7-23,83.5,76.4,70.0,76.0,71.6,69.0,97,85,69,30.09,29.88,2,0,4,0.00
2012-7-24,84.2,76.3,70.7,76.0,71.0,65.0,96,84,65,29.88,29.72,5,1,12,0.23
2012-7-25,84.3,73.8,65.3,65.0,62.7,57.0,87,70,48,29.95,29.80,3,0,4,0.00
2012-7-26,95.2,80.3,66.9,80.0,71.0,65.0,94,75,48,29.81,29.63,4,1,13,0.00
2012-7-27,84.4,77.3,70.8,73.0,69.7,67.0,90,78,65,29.87,29.70,5,1,7,0.01
2012-7-28,87.5,75.6,66.9,72.0,66.8,61.0,96,76,51,29.95,29.84,4,0,9,0.00
2012-7-29,81.7,72.4,66.3,69.0,64.3,62.0,90,76,55,30.00,29.91,5,1,7,0.00
2012-7-30,86.2,73.9,62.1,73.0,65.4,60.0,93,76,49,30.05,29.95,4,1,7,0.00
2012-7-31,85.0,71.8,64.1,72.0,67.9,63.0,98,88,60,29.99,29.84,5,0,12,1.16
2012-8-1,84.1,72.7,64.3,74.0,67.8,63.0,98,85,65,29.89,29.80,4,0,7,0.00
2012-8-2,89.6,76.9,65.5,75.0,69.5,65.0,98,80,50,29.89,29.82,2,0,4,0.00
2012-8-3,87.9,77.2,68.4,78.0,71.8,67.0,97,84,68,30.02,29.88,2,0,5,0.00
2012-8-4,89.5,78.3,69.2,77.0,71.6,68.0,97,81,57,30.10,30.02,4,1,9,0.00
2012-8-5,88.6,75.9,71.0,75.0,71.9,70.0,98,88,62,30.09,29.98,6,0,13,0.53
2012-8-6,86.8,76.9,68.4,73.0,69.5,63.0,98,79,55,30.05,29.95,2,0,5,0.01
2012-8-7,85.4,74.8,65.7,71.0,66.7,63.0,92,77,55,30.00,29.91,2,0,4,0.00
2012-8-8,89.3,77.0,67.8,71.0,66.8,61.0,96,74,39,29.97,29.88,2,0,4,0.00
2012-8-9,88.7,74.1,66.3,75.0,67.9,64.0,93,82,57,29.92,29.79,6,1,7,0.07
2012-8-10,84.0,73.3,66.8,73.0,68.7,66.0,98,86,66,29.81,29.67,3,0,9,0.78
2012-8-11,84.8,74.3,67.1,67.0,63.6,58.0,94,71,46,29.91,29.74,5,0,7,0.00
2012-8-12,82.1,71.4,61.8,64.0,60.3,56.0,89,69,48,29.99,29.90,4,0,8,0.00
2012-8-13,84.7,71.7,60.3,66.0,62.0,57.0,92,73,47,30.03,29.91,4,0,5,0.00
2012-8-14,83.8,72.5,65.9,72.0,67.2,64.0,97,84,61,29.91,29.79,2,0,5,0.11
2012-8-15,79.2,69.4,64.3,69.0,65.7,63.0,97,88,64,29.93,29.82,3,0,9,0.01
2012-8-16,84.5,72.6,59.8,68.0,63.2,59.0,97,75,46,29.99,29.86,3,0,6,0.00
2012-8-17,86.4,72.0,64.2,71.0,65.7,62.0,95,82,48,29.89,29.77,3,0,6,0.02
2012-8-18,80.3,70.9,63.1,65.0,60.0,56.0,89,70,44,29.92,29.84,4,1,6,0.00
2012-8-19,71.3,66.5,62.4,64.0,60.4,57.0,92,81,72,29.94,29.86,3,0,5,0.00
2012-8-20,77.0,66.7,62.0,67.0,62.9,60.0,97,88,64,29.95,29.83,3,0,5,0.01
2012-8-21,79.1,67.9,58.9,65.0,60.9,58.0,98,80,49,30.09,29.95,5,0,5,0.00
2012-8-22,81.8,67.8,57.0,67.0,61.3,56.0,98,81,52,30.14,30.06,3,0,5,0.09
2012-8-23,85.0,71.2,58.1,69.0,62.6,57.0,97,77,43,30.16,30.08,3,0,5,0.00
2012-8-24,82.3,71.4,61.3,69.0,64.4,60.0,96,80,54,30.16,30.09,2,0,5,0.00
2012-8-25,76.6,69.9,66.0,68.0,63.9,59.0,94,82,57,30.18,30.12,4,0,9,0.02
2012-8-26,76.5,70.0,66.2,72.0,68.3,64.0,98,94,80,30.19,30.10,4,1,10,0.62
2012-8-27,87.0,73.9,65.4,72.0,68.0,65.0,99,83,53,30.13,29.92,3,0,6,0.01
2012-8-28,85.0,75.6,67.2,70.0,65.1,59.0,94,71,44,29.95,29.88,4,1,8,0.01
2012-8-29,82.9,71.7,62.4,65.0,59.9,54.0,90,69,38,30.01,29.92,3,0,5,0.00
2012-8-30,84.7,72.3,60.2,66.0,61.7,57.0,89,71,46,30.11,30.00,2,0,5,0.00
2012-8-31,92.4,77.4,61.7,71.0,65.2,60.0,98,69,38,30.10,29.98,3,1,7,0.00
2012-9-1,88.4,78.6,70.7,76.0,70.9,66.0,95,78,58,30.06,29.96,3,1,8,0.04
2012-9-2,80.5,74.2,70.4,74.0,71.0,68.0,97,90,76,30.02,29.93,2,0,4,0.13
2012-9-3,81.1,73.4,69.6,73.0,70.7,69.0,99,92,74,30.01,29.94,4,0,6,0.00
2012-9-4,83.5,76.2,70.3,76.0,72.2,69.7,98,88,74,29.98,29.81,5,1,8,0.00
2012-9-5,90.4,78.5,71.7,74.0,71.2,67.7,96,80,48,29.82,29.75,5,0,7,0.02
2012-9-6,73.9,72.2,71.2,71.3,69.9,69.0,94,92,90,29.88,29.79,1,0,3,0.00
2012-9-7,88.9,81.4,72.3,72.0,70.4,68.0,90,70,51,29.88,29.76,4,1,8,0.00
2012-9-8,83.6,66.0,60.1,73.0,62.7,56.1,97,89,66,29.85,29.60,6,1,17,0.90
2012-9-9,75.6,64.2,54.9,60.0,53.4,46.0,94,71,38,29.98,29.83,5,1,9,0.00
2012-9-10,73.1,62.0,53.8,54.2,50.1,44.9,89,67,40,30.17,29.98,3,1,10,0.00
2012-9-11,76.4,61.0,46.7,52.8,49.0,44.7,96,68,38,30.31,30.17,3,0,5,0.00
2012-9-12,76.6,58.0,48.6,59.5,52.0,46.0,95,82,50,30.35,30.27,5,0,5,0.00
2012-9-13,80.2,72.0,60.5,61.6,56.8,52.9,84,60,42,30.35,30.24,3,1,5,0.00
2012-9-14,81.8,66.4,53.3,63.0,57.6,51.0,94,75,48,30.26,30.08,4,0,7,0.00
2012-9-15,73.6,65.1,55.5,61.0,52.5,47.8,83,65,42,30.24,30.11,6,1,8,0.00
2012-9-16,72.4,60.6,50.3,56.0,52.0,47.4,94,75,51,30.17,30.05,2,0,5,0.00
2012-9-17,74.8,61.7,49.0,63.1,56.8,47.2,98,85,60,30.09,29.92,5,1,7,0.01
2012-9-18,69.0,66.0,59.6,69.0,65.0,53.3,99,97,79,29.92,29.57,8,1,11,2.39
2012-9-19,67.3,58.8,50.1,54.7,47.5,41.0,87,68,40,30.16,29.84,8,1,8,0.00
2012-9-20,73.0,57.6,44.8,58.5,50.7,42.9,97,80,54,30.17,30.03,3,0,7,0.00
2012-9-21,78.5,64.6,52.7,64.2,58.5,51.6,98,82,56,30.05,29.88,4,0,8,0.00
2012-9-22,80.3,68.0,58.5,64.7,58.8,46.3,97,74,50,29.95,29.76,4,1,11,0.00
2012-9-23,66.1,56.4,48.0,48.1,43.6,39.9,81,63,43,30.16,29.95,6,1,14,0.00
2012-9-24,67.0,55.5,46.6,46.0,42.9,37.4,86,65,35,30.23,30.11,4,0,7,0.00
2012-9-25,73.3,58.3,44.8,56.1,48.1,42.0,91,71,40,30.17,30.02,4,0,8,0.00
2012-9-26,79.0,64.1,55.7,65.0,57.9,53.0,96,81,59,30.12,30.04,5,1,8,0.28
2012-9-27,77.9,67.2,60.8,66.0,62.6,59.0,97,86,62,30.15,30.04,3,0,5,0.28
2012-9-28,71.2,64.3,56.8,65.0,58.7,50.0,99,83,66,30.06,29.97,5,0,6,0.06
2012-9-29,66.1,57.3,50.5,51.0,48.8,45.0,92,74,48,30.02,29.91,3,0,7,0.00
2012-9-30,69.3,55.2,46.2,54.0,49.5,44.0,98,83,54,29.91,29.79,3,0,8,0.07
2012-10-1,66.2,54.9,43.3,56.0,50.8,42.0,98,87,64,29.97,29.89,4,0,6,0.04
2012-10-2,63.5,60.0,56.7,63.0,59.4,56.0,99,98,97,29.95,29.88,1,0,3,0.57
2012-10-3,77.6,68.0,61.5,69.0,65.3,61.0,99,91,72,30.10,29.93,2,0,6,0.00
2012-10-4,76.9,68.3,62.2,66.0,61.3,52.0,99,80,50,30.14,30.07,4,0,8,0.02
2012-10-5,77.5,66.1,55.7,62.0,56.9,53.0,91,73,52,30.13,29.91,3,0,6,0.03
2012-10-6,68.9,58.0,46.8,61.0,52.3,43.0,93,82,61,30.06,29.81,6,1,11,0.00
2012-10-7,50.1,47.2,42.2,47.0,43.2,39.0,95,86,77,30.18,30.01,4,0,5,0.05
2012-10-8,45.1,41.6,38.2,42.0,39.7,36.0,96,93,87,30.31,30.18,2,0,4,0.09
2012-10-9,58.4,48.8,40.9,49.0,43.9,40.0,97,85,59,30.24,30.05,2,0,7,0.00
2012-10-10,66.5,53.9,43.3,51.0,45.7,38.0,98,76,49,30.09,29.87,5,1,11,0.00
2012-10-11,58.6,50.2,41.9,41.0,35.8,31.0,81,59,41,30.28,30.09,3,1,8,0.00
2012-10-12,60.2,48.1,40.7,43.0,38.7,33.0,90,71,51,30.42,30.14,9,1,10,0.00
2012-10-13,56.7,45.4,34.6,41.0,35.6,29.0,86,70,51,30.51,30.23,6,1,8,0.00
2012-10-14,69.8,58.3,44.3,57.0,49.9,41.0,87,74,58,30.22,29.88,5,1,8,0.00
2012-10-15,68.7,62.3,52.6,62.0,54.5,45.0,90,76,54,29.87,29.65,8,2,12,0.00
2012-10-16,61.1,52.9,44.0,45.0,41.9,40.0,85,67,49,29.92,29.82,5,1,11,0.00
2012-10-17,65.1,51.2,39.5,50.0,43.2,37.0,93,76,50,29.99,29.88,3,0,6,0.00
2012-10-18,63.5,55.2,45.8,58.0,51.0,44.0,97,86,72,29.90,29.77,10,1,11,1.10
2012-10-19,67.6,57.7,51.1,59.0,53.5,43.0,98,87,65,29.80,29.59,3,0,6,0.14
2012-10-20,62.1,53.1,46.4,45.0,40.6,37.0,87,64,41,29.93,29.67,4,1,9,0.00
2012-10-21,62.4,52.3,43.5,43.8,40.5,38.6,87,66,43,30.14,29.93,6,1,10,0.00
2012-10-22,70.0,55.5,40.3,50.0,44.4,37.0,92,68,45,30.21,30.09,4,1,7,0.00
2012-10-23,76.3,62.6,51.4,60.1,53.2,47.0,87,72,53,30.13,30.01,2,0,6,0.00
2012-10-24,77.4,67.0,57.8,59.4,54.6,52.0,87,66,43,30.11,30.03,2,0,8,0.00
2012-10-25,69.2,61.9,54.5,61.4,56.0,50.7,96,81,69,30.17,30.08,4,1,9,0.00
2012-10-26,65.0,61.4,57.4,59.0,57.6,55.0,95,87,77,30.16,30.03,4,1,6,0.00
2012-10-27,63.8,59.8,57.5,57.1,54.4,50.4,94,83,64,30.02,29.86,3,0,5,0.00
2012-10-28,58.0,54.8,48.5,54.3,50.4,47.0,95,85,77,29.86,29.64,6,2,9,0.23
2012-10-29,48.5,44.5,37.7,47.1,42.8,36.0,95,94,91,29.64,28.76,14,4,35,4.17
2012-10-30,39.7,38.2,36.6,37.5,36.5,35.3,96,93,90,29.45,28.74,10,2,18,0.78
2012-10-31,49.2,42.7,36.1,39.0,35.9,33.6,97,78,60,29.65,29.44,4,1,10,0.01
2012-11-1,48.8,44.7,40.5,37.3,34.9,32.6,75,68,60,29.75,29.64,5,1,10,0.00
2012-11-2,48.0,43.0,38.0,35.2,31.8,29.0,77,65,53,29.95,29.72,7,1,11,0.00
2012-11-3,43.7,41.4,38.8,32.5,30.7,28.0,71,66,61,30.08,29.95,6,1,14,0.00
2012-11-4,49.7,41.7,35.5,34.7,30.3,26.0,75,64,49,30.10,30.01,7,1,10,0.00
2012-11-5,47.2,38.9,32.0,32.1,27.8,25.8,78,65,51,30.18,30.05,6,1,10,0.00
2012-11-6,42.5,35.2,29.2,29.8,26.6,24.0,83,71,57,30.20,30.03,6,1,7,0.00
2012-11-7,40.5,36.5,32.0,29.6,26.3,20.9,79,67,48,30.03,29.92,4,1,11,0.00
2012-11-8,51.7,42.5,36.0,30.6,22.0,12.8,68,46,24,30.10,29.95,8,2,14,0.00
2012-11-9,57.8,47.2,39.3,38.5,33.5,30.0,73,60,43,30.23,30.09,5,1,10,0.00
2012-11-10,63.6,49.3,37.5,41.0,36.2,31.6,86,63,37,30.34,30.20,3,0,5,0.00
2012-11-11,65.9,53.4,42.0,46.0,39.5,34.0,81,61,40,30.43,30.32,4,1,6,0.00
2012-11-12,65.3,57.4,45.6,57.0,50.9,42.0,92,79,65,30.35,30.09,7,2,13,0.33
2012-11-13,46.0,40.2,33.8,43.0,30.8,23.0,92,70,50,30.50,30.19,6,1,12,0.25
2012-11-14,40.3,34.7,30.3,29.0,26.2,23.0,81,71,63,30.57,30.45,5,1,8,0.00
2012-11-15,42.5,35.1,28.1,33.0,29.6,25.0,90,80,69,30.44,30.32,3,0,5,0.00
2012-11-16,51.6,41.1,32.3,33.0,30.1,27.0,90,67,42,30.46,30.31,4,1,9,0.00
2012-11-17,51.6,41.9,33.8,33.0,29.5,27.0,77,63,44,30.61,30.46,4,1,8,0.00
2012-11-18,49.6,42.1,34.0,38.0,33.4,28.0,80,72,61,30.61,30.50,5,0,7,0.00
2012-11-19,48.3,42.7,36.5,39.0,36.5,33.0,89,79,67,30.50,30.24,2,0,5,0.00
2012-11-20,48.4,40.7,32.5,40.0,36.3,31.0,96,85,71,30.23,30.09,5,0,5,0.00
2012-11-21,53.2,42.3,32.7,41.0,34.4,30.0,97,76,53,30.24,30.14,2,0,5,0.00
2012-11-22,55.5,43.6,33.0,37.0,31.4,28.0,85,64,43,30.28,30.12,3,0,5,0.00
2012-11-23,62.2,47.2,34.0,45.0,34.2,26.0,83,62,44,30.12,29.77,8,1,13,0.00
2012-11-24,39.7,34.5,32.3,25.0,20.4,18.0,64,57,50,30.06,29.87,10,2,13,0.00
2012-11-25,41.3,34.0,30.3,23.0,20.8,19.0,69,59,44,30.08,29.91,4,1,7,0.00
2012-11-26,52.9,42.0,29.6,31.0,27.0,20.0,72,57,39,30.19,29.99,4,1,6,0.00
2012-11-27,41.5,37.1,33.0,37.0,34.1,30.0,96,89,65,30.27,30.16,3,1,5,0.23
2012-11-28,44.0,37.4,33.3,34.0,26.1,22.0,89,65,46,30.37,30.25,7,1,11,0.01
2012-11-29,47.5,37.0,29.5,28.0,23.8,22.0,79,61,38,30.46,30.32,4,1,6,0.00
2012-11-30,51.8,39.8,29.7,32.0,27.1,23.0,76,62,39,30.36,30.28,4,1,7,0.00
2012-12-1,49.7,39.6,32.6,38.0,33.0,28.0,94,77,61,30.43,30.32,5,0,6,0.00
2012-12-2,58.2,45.6,30.7,49.0,40.3,30.0,97,83,61,30.37,30.12,4,1,8,0.01
2012-12-3,67.4,58.4,50.6,56.0,51.6,47.0,89,79,66,30.25,30.14,3,1,6,0.00
2012-12-4,70.1,61.0,51.4,55.0,51.3,49.0,91,72,53,30.20,29.97,4,1,8,0.00
2012-12-5,62.2,49.8,33.1,52.0,35.9,24.0,73,60,44,30.30,29.97,6,1,13,0.00
2012-12-6,42.0,33.9,27.0,28.0,24.7,21.0,81,69,55,30.38,30.20,4,1,7,0.00
2012-12-7,48.6,39.5,34.8,43.0,35.8,28.0,94,86,72,30.19,29.96,3,0,4,0.08
2012-12-8,61.2,47.3,37.0,52.0,44.0,36.0,96,89,72,30.02,29.86,2,0,7,0.06
2012-12-9,51.4,47.6,45.6,50.0,46.9,45.0,98,97,95,30.17,29.93,4,1,5,0.44
2012-12-10,57.7,52.6,44.8,56.0,50.8,38.0,99,94,77,29.92,29.56,7,1,16,0.02
2012-12-11,44.7,40.0,33.5,39.0,31.2,25.0,86,71,58,30.23,29.70,7,1,13,0.02
2012-12-12,38.8,35.0,30.1,28.0,26.3,25.0,84,71,63,30.44,30.23,5,0,7,0.00
2012-12-13,42.5,33.3,24.8,30.0,24.8,22.0,90,73,50,30.50,30.34,4,0,5,0.00
2012-12-14,52.8,39.3,27.0,31.0,24.8,22.0,85,60,35,30.34,30.22,3,1,6,0.00
2012-12-15,48.8,42.0,32.6,34.0,27.7,21.0,70,58,48,30.29,30.08,4,1,7,0.00
2012-12-16,46.1,42.6,39.6,41.0,39.0,35.0,94,87,74,30.06,29.83,4,1,6,0.00
2012-12-17,47.9,43.0,37.6,47.0,41.8,37.0,98,95,91,29.84,29.53,3,0,6,0.10
2012-12-18,53.1,43.8,36.9,46.0,36.5,30.0,98,76,64,29.81,29.53,4,1,12,0.01
2012-12-19,49.7,43.5,35.9,39.5,34.7,30.0,83,71,63,30.17,29.79,6,1,13,0.00
2012-12-20,42.7,39.3,35.7,39.5,34.6,31.6,97,84,70,30.18,29.38,8,2,14,0.27
2012-12-21,42.5,36.9,33.9,42.0,27.6,21.0,97,69,59,29.58,29.34,8,2,16,0.18
2012-12-22,38.0,33.7,28.6,25.0,22.2,19.0,71,62,52,30.05,29.57,11,3,22,0.00
2012-12-23,46.4,36.4,25.8,26.0,21.0,15.7,69,54,39,30.06,29.89,5,1,10,0.00
2012-12-24,39.9,32.8,29.7,30.6,28.0,23.9,97,83,61,30.06,29.89,7,1,11,0.00
2012-12-25,42.8,34.7,29.2,35.2,31.2,28.2,98,88,70,30.25,29.91,3,0,8,0.32
2012-12-26,34.4,30.2,27.3,31.2,28.3,26.0,96,92,83,30.24,29.52,6,2,9,0.00
2012-12-27,36.6,33.5,31.1,32.0,27.7,25.0,94,79,70,30.05,29.51,11,2,16,0.13
2012-12-28,38.9,33.6,30.7,27.4,25.8,24.4,81,73,60,30.16,30.01,6,1,8,0.23
2012-12-29,39.7,34.1,30.6,35.1,29.1,25.0,94,82,72,30.02,29.58,7,2,12,0.22
2012-12-30,35.2,31.5,25.7,28.3,22.3,18.0,81,69,56,30.34,29.85,8,2,19,0.03
2012-12-31,37.5,30.8,22.9,25.5,21.1,16.8,80,67,57,30.33,30.00,5,1,8,0.02
2013-1-1,42.2,37.7,34.2,31.0,28.3,21.8,82,69,57,30.02,29.91,4,1,7,0.12